遥感四十三号02组-A (YAOGAN-43 02A)

导读 | 星芒AI

YAOGAN-43 02A 是中国研制的一颗遥感卫星,主要用于科学实验和国土资源探测。该卫星属于遥感四十三号系列,具备高分辨率对地观测能力,能够获取高精度的地球表面图像,服务于环境监测、农业评估、灾害预警等多个领域。卫星采用先进的遥感技术和稳定的平台设计,提升了数据获取的效率和精度。其发射进一步增强了中国在遥感卫星领域的技术实力和应用能力。

基本信息
目录编号:
60945
目录名称:
YAOGAN-43 02A
国际标识:
2024-156A
轨道中心:
EARTH
卫星名称:
遥感四十三号02组-A (YAOGAN-43 02A)
卫星全名:
遥感四十三号02组-A (YAOGAN-43 02A)
卫星状态:
在轨 (已飞行421 天)
发射日期:
2024-09-03 UTC
国别 :
中国 (CN)
星等 :
--
轨道信息
数据来源 国际轨道数据 AOE轨道数据
星历时间 2025-10-28T13:03:01+0800
1天前
查看轨道信息
2025-10-28T11:00:00+0800
1天前
查看轨道信息
半长轴 6850.229km 6850.183km
偏心率 0.0006266 0.000629
轨道倾角 34.995° 34.995°
近地点辐角 270.282° 270.187°
升交点赤经 210.509° 211.053°
平近点角 89.718° 338.166°
近地点 467.801km 467.739km
远地点 476.387km 476.357km
周期 94.041分钟 94.040分钟
每日圈数 15.312468 15.31262
详细信息
运营商:
中国空间技术研究院
运营商所在国:
中国
制造商(研发单位):
中国空间技术研究院
制造商所在国:
中国
使用方式:
暂无
卫星简介
遥感四十三号卫星组分别由航天科技集团五院和八院等抓总研制,主要用于开展低轨星座系统新技术试验。
2D轨道图
3D轨道图
轨道高度分析图
轨道倾角分析图
轨道综合分析图
查看轨道综合分析图